This is the latest recevied weather packets stored in our database for station/object KG5MMT-15. If no packets are shown the sender has not sent any weather packets the latest 10 day(s).
| Time | Temp. | Humidity | Pressure | Rain* | Wind** | Luminosity | Snow |
|---|---|---|---|---|---|---|---|
| 1777736544 | 10.56° C | 32% | 0 hPa | 0 mm | - | - | - |
| 1777736244 | 10° C | 36% | 0 hPa | 0 mm | - | - | - |
| 1777735944 | 9.44° C | 34% | 0 hPa | 0 mm | - | - | - |
| 1777735644 | 10° C | 36% | 0 hPa | 0 mm | - | - | - |
| 1777735344 | 10° C | 37% | 0 hPa | 0 mm | - | - | - |
| 1777735044 | 9.44° C | 35% | 0 hPa | 0 mm | - | - | - |
| 1777734744 | 9.44° C | 35% | 0 hPa | 0 mm | - | - | - |
| 1777734444 | 9.44° C | 34% | 0 hPa | 0 mm | - | - | - |
| 1777734144 | 10° C | 41% | 0 hPa | 0 mm | - | - | - |
| 1777733844 | 9.44° C | 37% | 0 hPa | 0 mm | - | - | - |
| 1777733244 | 9.44° C | 47% | 0 hPa | 0 mm | - | - | - |
| 1777732944 | 8.89° C | 47% | 0 hPa | 0 mm | - | - | - |
| 1777732644 | 8.89° C | 51% | 0 hPa | 0 mm | - | - | - |
| 1777732344 | 8.33° C | 55% | 0 hPa | 0 mm | - | - | - |
| 1777732044 | 7.78° C | 57% | 0 hPa | 0 mm | - | - | - |
| 1777731744 | 7.22° C | 66% | 0 hPa | 0 mm | - | - | - |
| 1777731444 | 6.67° C | 68% | 0 hPa | 0.25 mm | - | - | - |
| 1777731144 | 6.11° C | 70% | 0 hPa | 0.25 mm | - | - | - |
| 1777730848 | 5.56° C | 72% | 0 hPa | 0.25 mm | - | - | - |
| 1777730544 | 5.56° C | 75% | 0 hPa | 0.25 mm | - | - | - |
| 1777730244 | 5° C | 77% | 0 hPa | 0.25 mm | - | - | - |
| 1777729944 | 4.44° C | 81% | 0 hPa | 0.25 mm | - | - | - |
| 1777729644 | 3.89° C | 82% | 0 hPa | 0.25 mm | - | - | - |
| 1777729344 | 3.33° C | 83% | 0 hPa | 0.25 mm | - | - | - |
| 1777729044 | 3.33° C | 86% | 0 hPa | 0.25 mm | - | - | - |
* Rain latest hour (hover to see other rain measurements)
** Current wind speed in m/s (hover to see current wind gust speed)